sat.trackr.live / text

‹ back to catalog

STARLINK-30403

NORAD 57813 · 2023-138F

PAYLOAD ACTIVE UNKNOWN

§ Identity

Operator
Country
US
Launch date
2023-09-09
Launch site
AFETR
Launch vehicle
Mass (kg)
RCS (m²)

Purposes: comms

External: N2YO · Heavens-Above · Gunter

§ Orbital elements

Epoch: 2026-09-20T21:45:06.926688Z

Period
94.27 min
Inclination
43.0024°
Eccentricity
0.0000724
Mean motion
15.27574031 rev/d
Perigee alt
482.6 km
Apogee alt
483.6 km
Semi-major
6,861.2 km
B*
-1.0130e-6
RAAN
211.7522°
Arg perigee
287.0361°
Mean anomaly
73.0411°
Rev number
16,849

§ Raw data

STARLINK-304031 57813U 23138F   26263.90633017 -.00000290  00000+0 -10130-5 0  99912 57813  43.0024 211.7522 0000724 287.0361  73.0411 15.27574031168498

JSON: /api/v1/satellites/57813 · /tle

For live sub-satellite position, see the globe view (requires WebGL).

§ Visibility from observer

Set your observer location to see the next 7 days of passes ≥ 10°. The values pass through the URL so the page stays shareable.

No JS? Fill the form by hand. The geolocation button needs JavaScript.